Location: Aubervilles
(48.9167°N, 2.3833°E)
Time: 12:12:54
(UTC+00:00)

ATLAS 5 CENTAUR R/B - Pass Details

Date: 03 February 2023
Orbit: 460 x 1178 km, 63.3° (Epoch: 24 March)

Event Time Altitude Azimuth Distance (km) Brightness Sun altitude
Rises 20:17:13 0° 318° (NW) 2,875 5.7 -33.9°
Reaches altitude 10° 20:19:49 10° 335° (NNW) 2,082 4.7 -34.4°
Enters shadow 20:20:29 13° 341° (NNW) 1,919 4.4 -34.5°
